CZ-3B R/B

Last updated on Jan. 28, 2020, 12:02 a.m. UTC

1 44979U 20002B   20025.81289763  .00098988  13069-5  13682-2 0  9998
2 44979  27.4112 326.7499 7228361 190.9769 134.5459  2.39983624   436
UTC
Height (km)
Latitude
Longitude
Inclination
Orbital Period
UTC large
Height (km)
Speed (km/s)
/
Latitude / Longitude
Inclination (degrees)
Orbital Period (minutes)
Azimuth
Elevation
Range (km)
Doppler Factor
iOS Compass Heading
iOS Angle

Next 30 passes for location: Hong Kong

Rise time Rise Azimuth (degrees) Set time Set Azimuth (degrees) Duration Max altitude (degrees)

No matching passes for this satellites